TimeCDT,TemperatureF,Dew PointF,Humidity,Sea Level PressureIn,VisibilityMPH,Wind Direction,Wind SpeedMPH,Gust SpeedMPH,PrecipitationIn,Events,Conditions,WindDirDegrees,DateUTC
12:54 AM,57.9,43.0,58,29.85,10.0,West,4.6,-,0.00,,Overcast,270,2013-10-21 05:54:00
1:54 AM,57.0,45.0,64,29.87,10.0,WNW,6.9,-,N/A,,Mostly Cloudy,290,2013-10-21 06:54:00
2:54 AM,53.1,44.1,71,29.88,10.0,NW,4.6,-,N/A,,Scattered Clouds,320,2013-10-21 07:54:00
3:54 AM,52.0,43.0,71,29.89,10.0,NNW,5.8,-,N/A,,Overcast,330,2013-10-21 08:54:00
4:54 AM,50.0,41.0,71,29.91,10.0,NNW,6.9,-,N/A,,Overcast,330,2013-10-21 09:54:00
5:54 AM,46.9,39.0,74,29.94,10.0,NNW,5.8,-,N/A,,Clear,330,2013-10-21 10:54:00
6:54 AM,43.0,37.0,80,29.96,10.0,NW,5.8,-,N/A,,Scattered Clouds,310,2013-10-21 11:54:00
7:02 AM,43.0,37.0,80,29.96,10.0,NW,6.9,-,N/A,,Mostly Cloudy,310,2013-10-21 12:02:00
7:54 AM,43.0,36.0,76,29.99,10.0,Variable,6.9,-,N/A,,Overcast,0,2013-10-21 12:54:00
8:54 AM,43.0,33.1,68,30.00,10.0,NW,12.7,16.1,N/A,,Overcast,310,2013-10-21 13:54:00
9:52 AM,44.6,32.0,61,30.01,10.0,WNW,12.7,19.6,N/A,,Scattered Clouds,300,2013-10-21 14:52:00
9:54 AM,45.0,30.9,58,30.01,10.0,NNW,12.7,19.6,N/A,,Scattered Clouds,330,2013-10-21 14:54:00
10:54 AM,45.0,30.0,56,30.01,10.0,NW,9.2,-,N/A,,Clear,320,2013-10-21 15:54:00
11:54 AM,46.9,30.9,54,30.01,10.0,West,9.2,-,N/A,,Mostly Cloudy,280,2013-10-21 16:54:00
12:54 PM,46.9,28.9,50,30.01,10.0,West,11.5,20.7,N/A,,Overcast,280,2013-10-21 17:54:00
1:54 PM,48.0,27.0,44,29.99,10.0,WNW,11.5,20.7,N/A,,Scattered Clouds,300,2013-10-21 18:54:00
2:54 PM,48.9,25.0,39,29.99,10.0,West,16.1,25.3,N/A,,Clear,280,2013-10-21 19:54:00
3:54 PM,48.0,21.9,36,30.00,10.0,WNW,13.8,20.7,N/A,,Clear,300,2013-10-21 20:54:00
4:54 PM,46.9,21.9,37,30.01,10.0,WNW,10.4,-,N/A,,Clear,300,2013-10-21 21:54:00
5:54 PM,45.0,21.0,39,30.03,10.0,WNW,11.5,-,N/A,,Clear,300,2013-10-21 22:54:00
6:54 PM,41.0,23.0,49,30.03,10.0,Calm,Calm,-,N/A,,Clear,0,2013-10-21 23:54:00
7:54 PM,37.0,28.0,70,30.04,10.0,Calm,Calm,-,N/A,,Clear,0,2013-10-22 00:54:00
8:54 PM,36.0,28.0,73,30.04,10.0,Calm,Calm,-,N/A,,Clear,0,2013-10-22 01:54:00
9:54 PM,34.0,28.9,82,30.05,10.0,Calm,Calm,-,N/A,,Partly Cloudy,0,2013-10-22 02:54:00
10:54 PM,33.1,28.0,82,30.05,10.0,Calm,Calm,-,N/A,,Clear,0,2013-10-22 03:54:00
11:54 PM,30.9,26.1,82,30.04,10.0,SW,3.5,-,N/A,,Clear,220,2013-10-22 04:54:00